User: anonymous   Login
Location: Pensacola
(30.4142°N, 87.2155°W)
Time: 02:01:21
(UTC-05:00)
Language:

PE2_FLT2 (TYVAK-0262) - Orbit

View from above orbital plane
View from above orbital plane
View from above satellite
View from above satellite

Ground track
Ground track

The orbit data is extracted from the following two-line orbital elements,

1 59104U 24043G   24197.91402239  .00004924  00000-0  47606-3 0  9990
2 59104  97.7610 321.0081 0008625 176.8954 183.2321 14.93224952 19840
Epoch (UTC): 15 July 2024 21:56:11
Eccentricity: 0.0008625
inclination: 97.7610°
perigee height: 582 km
apogee height: 594 km
right ascension of ascending node: 321.0081°
argument of perigee: 176.8954°
revolutions per day: 14.93224952
mean anomaly at epoch: 183.2321°
orbit number at epoch: 1984

The dashed part of the orbit path shows where the satellite is in the earth's shadow,  

DLR